Rbgn^[z[y[W
メイン
   新天体発見情報
     Comet P/2022 C1 (PANSTARRS)
投稿するにはまず登録を

スレッド表示 | 新しいものから 前のトピック | 次のトピック | 下へ
投稿者 スレッド
佐藤裕久
投稿日時: 2022-2-12 0:37
モデレータ
登録日: 2005-6-12
居住地: 日本
投稿: 2505
オンライン
Comet P/2022 C1 (PANSTARRS)

R. Weryk (西オンタリオ大学,物理および天文学科)の通報によると、2月3日UT、Haleakala
にあるPan-STARRS2の1.8-m Ritchey-Chretien 反射望遠鏡で得た画像から彗星を発見した
(最初に気づいたのはMark Huber)。
4枚の45秒w-バンドサーベイ画像では、1".5のシーイングで、この彗星は1".6(半値全幅:FWHM)
の集光したコマが見え、p.a. 270°に向かって5" のまっすぐな尾がある。
Werykは、2021年11月6.6日UT(光度21.2-23.4等)と2022年1月8.44-8.46日(光度20.9-21.2等)の
Pan-STARRS2と2021年11月7.6日(光度21.7-22.2等)、10.6日と11.6日(光度21.7-22.1)のPan-
STARRS1による発見前の彗星画像を見つけた。
11月11.6日に得た4枚の45秒Wバンドサーベイ画像では、1".0のシーイングで、1".3の非常に
集光したコマが見え、p.a. 285°に向かって3"の尾がある。1月8日に得た3枚の45秒Wバンド
サーベイ画像では、p.a. 285°に向かって4"の尾が見える。

彗星機能の報告は次のとおり、

OC   Date        Reporter           Coma    Tail    PA          Exposures
F51  2021-11-11  R. Weryk           0".3     3"     285         4x45s
F52  2022-01-08  R. Weryk                    4"     285         3x45s

発見位置は次のとおり、

     2022 UT             R.A. (2000) Decl.       Mag.
     Feb.  3.33133    9 18 46.37   +18 13 55.5   20.8
           3.34399    9 18 45.97   +18 13 58.0   20.6
           3.35663    9 18 45.55   +18 14 00.7   20.7
           3.36937    9 18 45.14   +18 14 03.3   20.7
           3.55683    9 18 39.03   +18 14 40.9   20.7
           3.55746    9 18 38.99   +18 14 40.9   20.4

MPCの楕円軌道要素、位置推算表は次のとおり、

Orbital elements:
    P/2022 C1 (PANSTARRS)                                                       
Epoch 2021 Nov. 2.0 TT = JDT 2459520.5                                          
T 2021 Nov. 4.34368 TT                                  Rudenko                 
q   3.9855041            (2000.0)            P               Q                  
n   0.05085869     Peri.    9.34038     -0.53661406     -0.84036773             
a   7.2148276      Node   113.14804     +0.76873838     -0.52416405             
e   0.4475954      Incl.    4.76226     +0.34797509     -0.13796423             
P  19.4                                                                         
From 28 observations 2021 Nov. 6-2022 Feb. 3, mean residual 0".2.               
                                                                                
    P/2022 C1 (PANSTARRS)                                                       
Epoch 2041 May 1.0 TT = JDT 2466640.5                                           
T 2041 May 3.21112 TT                                   Rudenko                 
q   3.9862452            (2000.0)            P               Q                  
n   0.05074765     Peri.    9.76107     -0.54271437     -0.83644465             
a   7.2253478      Node   113.14422     +0.76490511     -0.52972673             
e   0.4482971      Incl.    4.75968     +0.34696006     -0.14053445             
P  19.4                                                                         
From 28 observations 2021 Nov. 6-2022 Feb. 3, mean residual 0".2.               
                                                                                
    P/2022 C1 (PANSTARRS)                                                       
Epoch 2022 Jan. 21.0 TT = JDT 2459600.5                                         
T 2021 Nov. 4.30176 TT                                  Rudenko                 
q   3.9854911            (2000.0)            P               Q                  
n   0.05083931     Peri.    9.33447     -0.53651829     -0.84042912             
a   7.2166607      Node   113.14743     +0.76879796     -0.52407521             
e   0.4477375      Incl.    4.76207     +0.34799112     -0.13792779             
P  19.4                                                                         
From 28 observations 2021 Nov. 6-2022 Feb. 3, mean residual 0".2.               
                                                                                
Ephemeris:
Date    TT    R. A. (2000) Decl.     Delta      r    Elong.  Phase   m1
2022 01 06    09 31 04.1 +16 44 10   3.1520  4.0018   145.6     8.0  20.5
...
2022 01 21    09 25 25.0 +17 29 09   3.0620  4.0105   162.3     4.3  20.5
...
2022 01 29    09 21 32.2 +17 55 56   3.0397  4.0159   171.2     2.1  20.5
...
2022 02 04    09 18 25.2 +18 16 10   3.0355  4.0203   177.1     0.7  20.5
2022 02 05    09 17 53.6 +18 19 30   3.0359  4.0210   177.5     0.6  20.5
2022 02 06    09 17 21.9 +18 22 48   3.0365  4.0218   177.4     0.6  20.5
...
2022 02 12    09 14 13.3 +18 42 05   3.0469  4.0266   171.9     2.0  20.5
...
2022 02 20    09 10 14.2 +19 05 32   3.0773  4.0333   163.1     4.1  20.5
...
2022 03 07    09 04 12.1 +19 39 23   3.1824  4.0474   146.6     7.8  20.6

(MPEC 2022-C74、CBET 5096)

スレッド表示 | 新しいものから 前のトピック | 次のトピック | トップ

投稿するにはまず登録を
 
© 1999 Tsutomu Seki.